Regional Weather Roundup
Issued by NWS

Home | Current Version | Previous Version | Text Only | Print | Product List | Glossary On
Versions: 1 2 3 4 5 6 7 8 9 10 11 12 13 14 15 16 17 18 19 20 21 22 23 24 25 26 27 28 29 30 31 32 33 34 35 36 37 38 39 40 41 42 43 44 45 46 47 48 49 50
000
ASHW40 PHFO 311030
RWRHI

WEATHER ROUNDUP FOR HAWAII
NATIONAL WEATHER SERVICE HONOLULU HI
1200 AM HST FRI JUL 31 2015

THIS IS AN AUTOMATED REPORT THAT HAS NOT BEEN QUALITY CONTROLLED.

NOTE..."FAIR" INDICATES FEW OR NO CLOUDS BELOW 12,000 FEET WITH NO
SIGNIFICANT WEATHER AND/OR OBSTRUCTIONS TO VISIBILITY.

* - THESE SITES REPORT LIMITED FIELDS

HIZ001>004-311100-
KAUAI-NIIHAU-

CITY           SKY/WX    TMP DP  RH WIND       PRES   REMARKS
LIHUE APT      CLOUDY    79  72  79 NE16      30.04S
PORT ALLEN*    NOT AVBL
POIPU*           N/A     79 N/A N/A NE9G17      N/A
PRINCEVILLE*     N/A     77 N/A N/A MISG        N/A
KOKOLE POINT*  NOT AVBL
MOLOAA DAIRY*  NOT AVBL
WAIMEA HTS*    NOT AVBL
PUU OPAE*      NOT AVBL
PUU LUA*       NOT AVBL
MAKAHA RIDGE*    N/A     73  68  83 CALM        N/A
$$

HIZ005>011-311100-
OAHU-

CITY           SKY/WX    TMP DP  RH WIND       PRES   REMARKS
HONOLULU       PTCLDY    81  69  67 NE16G22   29.99F
KALAELOA       CLEAR     79  68  69 VRB5      30.01S
KANEOHE MCB    PTCLDY    79  71  76 NE8       29.99F
WHEELER FIELD  PTCLDY    77  64  65 VRB5      30.04S
BELLOWS*         N/A    N/A N/A N/A NE16        N/A
KAHUKU*          N/A    N/A N/A N/A E12G18      N/A
WHEELER*       NOT AVBL
WAIANAE HARBOR NOT AVBL
DILLINGHAM*      N/A     77  68  73 MISG        N/A
KAHUKU TRN*      N/A     75  70  83 E8G18       N/A
KAWAILOA*        N/A     73  66  78 E6G17       N/A
KII*             N/A     81  73  78 E17G23      N/A
MAKUA RANGE*     N/A     81  68  65 E7G16       N/A
OAHU FOREST NW NOT AVBL
SCHOFIELD BRK*   N/A     75  66  73 MISG        N/A
SCHOFIELD S*   NOT AVBL
WAIANAE VLY*   NOT AVBL
KUAOKALA*      NOT AVBL
HONOULIUULI*   NOT AVBL
MOKUOLOE IS*   NOT AVBL
PALEHUA*       NOT AVBL
WAIAWA PHB*    NOT AVBL
$$

HIZ012>013-311100-
MOLOKAI-

CITY           SKY/WX    TMP DP  RH WIND       PRES   REMARKS
MOLOKAI AIRPT  PTCLDY    78  70  76 NE14G26   30.01F
KALAUPAPA      NOT AVBL
MAKAPULAPAI*   NOT AVBL
MOLOKAI 1*     NOT AVBL
PUU ALII*        N/A     62  62  98 CALM        N/A
$$

HIZ016-311100-
KAHOOLAWE-

CITY           SKY/WX    TMP DP  RH WIND       PRES   REMARKS
KAHOOLAWE*     NOT AVBL
HAKIOAWA*        N/A     74  70  87 MISG      30.43
HONOKANAIA*      N/A     81  72  75 E14G29    29.99F
KANELOA*         N/A     75  72  88 E18G26    30.06R
KEALIALALO*      N/A     75  70  83 NE9G24      N/A
LUA MAKIKA*    NOT AVBL
$$

HIZ014>015-311100-
LANAI-

CITY           SKY/WX    TMP DP  RH WIND       PRES   REMARKS
LANAI CITY     FAIR      73  68  84 E8        30.05S
LANAI 1*       NOT AVBL
$$

HIZ017>028-311100-
MAUI-

CITY           SKY/WX    TMP DP  RH WIND       PRES   REMARKS
KAHULUI        CLEAR     79  71  76 NE15      30.00F
KAPALUA-W MAUI NOT AVBL
HANA AIRPORT   CLOUDY    75  73  94 S3        30.05S
HANA*            N/A     75 N/A N/A S3          N/A
HALEAKALA SUMM NOT AVBL
MAALAEA BAY*   NOT AVBL
HALEAKALA*     NOT AVBL
KAUPO GAP*     NOT AVBL
KULA 1*          N/A    N/A N/A N/A E3G9        N/A
$$

HIZ023>026-311100-
BIG ISLAND OF HAWAII COAST AND LOWER SLOPES-

CITY           SKY/WX    TMP DP  RH WIND       PRES   REMARKS
KAILUA KONA    MOCLDY    81  71  71 E6        29.94S
HILO           CLOUDY    75  73  93 W6        30.01F
HONOKAA*       NOT AVBL
KAWAIHAE MWT*    N/A     81 N/A N/A E1G15       N/A
KAWAIHAE*        N/A     81 N/A N/A NE5         N/A
SOUTH POINT*     N/A     75 N/A N/A NE21G30     N/A
UPOLU AIRPORT*   N/A    N/A N/A N/A NE18G26     N/A
KAMUELA*       CLOUDY    68  66  94 NE20      30.09S
HAKALAU*         N/A     52  51  97 SW3         N/A
KALOKO-HONOKO*   N/A     81  70  69 E3G9      29.93F
PALI 2*          N/A     68  64  88 N12G23      N/A
KEALAKOMO*       N/A     82  72  69 NE14G22     N/A
KAUPULEHU*     NOT AVBL
KAPAPALA*        N/A     64  62  93 NW6         N/A
LOWER KAHUKU*    N/A     64  64 100 N3G13       N/A
PUHE CS*         N/A     81  70  69 E7G22       N/A
PUHO CS*         N/A     77  71  81 E2          N/A
PTA KEAMUKU*     N/A     64  61  88 CALM        N/A
WAIKOLOA*      NOT AVBL
$$

HIZ027>028-311100-
BIG ISLAND OF HAWAII INTERIOR AND SUMMMITS-

CITY           SKY/WX    TMP DP  RH WIND       PRES   REMARKS
BRADSHAW FIELD CLOUDY    56  51  84 SE6       30.33F
MK VISITOR CEN NOT AVBL
MAUNA KEA*     NOT AVBL
MAUNA LOA*       N/A     48  14  25 MISG        N/A
MAUNA LOA 1*   NOT AVBL
PTA KIPUKA*      N/A     57  57 100 SE3         N/A
PTA RANGE 17*    N/A     63  55  77 E12G26      N/A
PTA WEST*        N/A     59  57  94 NE1G7       N/A
NENE CABIN*      N/A    N/A N/A N/A NE7G14      N/A
AHUMOA*        NOT AVBL
PTA PORTABLE*  NOT AVBL
PUU MALI*        N/A    N/A N/A N/A SE15G23     N/A
$$

HIC003-311100-
NORTHWEST ISLANDS-

CITY           SKY/WX    TMP DP  RH WIND       PRES   REMARKS
MIDWAY ISLAND  MOCLDY    79  72  78 E16       30.04S
MIDWAY NOS*    NOT AVBL
FRENCH FRIGATE NOT AVBL
$$

PHZ110>124-180-311100-
BUOY REPORTS

STATION/POSITION TIME  TEMP    WIND        PRES    WAVE   SWELL
                       AIR SEA DIR/SP/G            HT/PER HT/DIR
                 (UTC) (F)     (DEG/KT/KT) (MB)    (FT/S) (FT/D)
BUOY 51001       NOT AVBL
BUOY 51101       1000   80 81   90/ 19/ 21 1016.0F   6/ 8   3/120
BUOY 51100       NOT AVBL
BUOY 51002       1000   81 82   80/ 19/ 21 1012.8F   8/ 8   3/140
BUOY 51003       1000   82 83   60/ 16/ 19 1014.5F   6/ 7   5
BUOY 51004       0927   81 81   60/ 16/ 19 1013.6F   7/ 8   3/120
BARBERS PT BUOY  NOT AVBL
WAIMEA BAY BUOY  1000      81                N/A     4/ 7
KAILUA BAY BUOY  1000      81                N/A     6/ 7   2/110
LANAI BUOY       NOT AVBL
BARBERS PT 2     1000      81                N/A     3/11   2/190
PAUWELA MAUI     1000      79                N/A     5/ 7
HILO             NOT AVBL
KANEOHE BAY BUOY 1000      80                N/A     5/ 6
HANALEI KAUAI    1000      81                N/A     4/ 7
KAHULUI HARBOR   1000   79 82   30/ 12/ 14 1015.9R
HONOLULU HARBOR  1000   81 82  100/  3/  6 1015.8F
KILO NALU        NOT AVBL
HILO HARBOR      1000   76 78  250/  6/  7 1015.8F
MOKUOLOE         1000   81 84   70/ 10/ 12 1016.6F
NAWILIWILI       1000   80 84   60/ 14/ 15 1016.6F
WHOTS BUOY       NOT AVBL
BUOY 51028       NOT AVBL
$$

......................KEY........................................
  SKY/WX - SKY CONDITIONS/PRESENT WEATHER
  TMP    - TEMPERATURE IN FAHRENHEIT
  DWPT   - DEWPOINT IN FAHRENHEIT
  RH     - RELATIVE HUMIDITY IN PERCENT
  WIND   - DIRECTION AND SPEED /MPH FOR ISLANDS...KTS FOR BUOYS/
  PRES   - MEAN SEA LEVEL PRESSURE IN INCHES OF HG
  VSB    - VISIBILITY IN MILES
  HX     - HEAT INDEX
  WCI    - WIND CHILL INDEX
  VRB    - VARIABLE WIND DIRECTION
  N/A    - NOT AVAILABLE



USA.gov is the U.S. government's official web portal to all federal, state and local government web resources and services.